Погода в Варшаве

США     38°14′33″N   93°22′57″W
темп.,
°C
ветер,
м/с
пор.,
м/с
влажн.,
%
обл.,
%
осадки,
мм/ч
давл.,
гПа
погр.,
м
15 мая, сб
сб1501:00+13ююв4126892 0.0 1021325
04:00+13ю41476100 0.1 1020481
07:00+13ю41370100 0.1 1019446
10:00+13ю31092100 0.8 1020443
13:00+13ю3898100 8.3 1019462
16:00+13ююв3898100 6.6 1018411
19:00+14юв2599100 6.9 1017182
22:00+13вюв239954 0.0 101775
16 мая, вс
вс1601:00+15вюв1399100 0.6 101880
04:00+16вюв1299100 1.1 101758
07:00+16ююв2599100 3.9 1018193
10:00+18ююв2496100 7.8 1018400
13:00+22ююз2585100 9.9 1016843
16:00+22ююз3789100 2.6 1015550
19:00+19юв2286100 3.4 101414
22:00+17сз1196100 2.5 101432
17 мая, пн
пн1701:00+16вюв2698100 6.4 1013197
04:00+16ююв41297100 1.4 1012582
07:00+16ююв31098100 2.1 1012450
10:00+17ююв3897100 0.1 1012530
13:00+18ю3895100 0.3 1012500
16:00+22ю358194 0.5 1011827
19:00+20зюз249487 3.4 1011240
22:00+19зюз1297100 0.9 101249
18 мая, вт
вт1801:00+18ю2399100 1.9 101298
04:00+18ююв119899 0.4 101145
07:00+18ю41198100 3.0 1013619
10:00+21ю3575100 1.4 1013484
13:00+25ююз5865100 1.4 10121288
16:00+23ю378246 0.4 1012619
19:00+23ю4876100 0.5 1012761
22:00+19ю4984100 0.1 1012436
19 мая, ср
ср1901:00+17ююв41391100 0.3 1013544
04:00+18вюв71896100 5.8 10091216
07:00+17ю61291100 5.9 1013678
10:00+21ю5865100 0.0 10151010
13:00+24ююз466285 0.0 10151318
16:00+22ююз258299 0.5 1014618
19:00+24ю2575100 0.6 1014304
22:00+20ююв5139198 0.1 1016539